Climatologie pour Saint-Brevin les Pins
Jour • Résumé pour décembre 6, 2017 Système :  Métrique    Anglais   Mixte
« - 1 jour
+ 1 jour »
Jour Semaine Mois Année Personnalisé
  Maximum : Minimum : Moyenne :
Température sous abri : 9.3 °C 3.4 °C 7.5 °C
Point de rosée : 6.2 °C 2.4 °C 4.9 °C
Humidité : 94 % 72 % 84 %
Vitesse du vent : 17.7 km/h 0.0 km/h 4 km/h
Rafale : 22.5 km/h - -
Direction :- - SSE
Pression : 1036.8 hPa 1027.0 hPa -
Précipitations : 0.0 mm    
Historical Graphs
 
 
Tableau de données pour décembre 6, 2017
Heure Tempé Pt rosée Pression Vent Vitesse Rafale Humidité Taux pluie (/hr) Soleil
00:00 7.1 °C 6.0 °C 1036.8 hPa Calm     93 % 0.0 mm 0 W/m2
00:10 6.9 °C 6.0 °C 1036.8 hPa Calm     94 % 0.0 mm 0 W/m2
00:15 6.9 °C 6.0 °C 1036.8 hPa Calm     94 % 0.0 mm 0 W/m2
00:20 7.0 °C 6.1 °C 1036.8 hPa Calm     94 % 0.0 mm 0 W/m2
00:25 7.0 °C 6.1 °C 1036.8 hPa Calm     94 % 0.0 mm 0 W/m2
00:30 7.1 °C 6.2 °C 1036.8 hPa SSE 1.6 km/h 3.2 km/h 94 % 0.0 mm 0 W/m2
00:35 7.1 °C 6.2 °C 1036.5 hPa Calm   3.2 km/h 94 % 0.0 mm 0 W/m2
00:40 7.1 °C 6.1 °C 1036.5 hPa Calm   3.2 km/h 93 % 0.0 mm 0 W/m2
00:45 7.1 °C 6.0 °C 1036.5 hPa SSE 1.6 km/h 3.2 km/h 93 % 0.0 mm 0 W/m2
00:50 7.1 °C 6.2 °C 1036.5 hPa Calm   3.2 km/h 94 % 0.0 mm 0 W/m2
00:55 7.1 °C 6.0 °C 1036.5 hPa Calm   3.2 km/h 93 % 0.0 mm 0 W/m2
01:10 7.1 °C 6.1 °C 1036.5 hPa Calm     93 % 0.0 mm 0 W/m2
01:15 7.1 °C 6.0 °C 1036.5 hPa Calm   1.6 km/h 93 % 0.0 mm 0 W/m2
01:20 7.1 °C 6.0 °C 1036.1 hPa Calm   1.6 km/h 93 % 0.0 mm 0 W/m2
01:25 7.1 °C 6.0 °C 1036.1 hPa Calm   1.6 km/h 93 % 0.0 mm 0 W/m2
01:30 7.1 °C 6.0 °C 1036.1 hPa Calm   1.6 km/h 93 % 0.0 mm 0 W/m2
01:35 7.1 °C 6.1 °C 1036.1 hPa Calm     93 % 0.0 mm 0 W/m2
01:40 7.1 °C 6.0 °C 1036.1 hPa Calm     93 % 0.0 mm 0 W/m2
01:45 7.1 °C 6.0 °C 1036.1 hPa SSE 3.2 km/h 4.8 km/h 93 % 0.0 mm 0 W/m2
01:50 7.1 °C 5.8 °C 1036.1 hPa Calm   4.8 km/h 92 % 0.0 mm 0 W/m2
01:55 7.0 °C 5.9 °C 1036.1 hPa Calm   4.8 km/h 93 % 0.0 mm 0 W/m2
02:00 7.0 °C 5.9 °C 1036.1 hPa Calm     93 % 0.0 mm 0 W/m2
02:05 7.1 °C 5.8 °C 1035.8 hPa Calm   1.6 km/h 92 % 0.0 mm 0 W/m2
02:10 7.1 °C 5.9 °C 1035.8 hPa Calm   3.2 km/h 92 % 0.0 mm 0 W/m2
02:15 7.1 °C 5.8 °C 1035.8 hPa Calm   3.2 km/h 92 % 0.0 mm 0 W/m2
02:20 6.9 °C 5.7 °C 1035.8 hPa Calm     92 % 0.0 mm 0 W/m2
02:25 7.1 °C 5.7 °C 1035.8 hPa Calm   3.2 km/h 91 % 0.0 mm 0 W/m2
02:30 7.1 °C 5.7 °C 1035.8 hPa Calm   3.2 km/h 91 % 0.0 mm 0 W/m2
02:35 7.1 °C 5.7 °C 1035.8 hPa Calm     91 % 0.0 mm 0 W/m2
02:40 7.2 °C 5.6 °C 1035.8 hPa Calm   3.2 km/h 90 % 0.0 mm 0 W/m2
02:45 7.2 °C 5.5 °C 1035.8 hPa Calm   3.2 km/h 89 % 0.0 mm 0 W/m2
02:50 7.3 °C 5.6 °C 1035.8 hPa Calm   1.6 km/h 89 % 0.0 mm 0 W/m2
02:55 7.2 °C 5.5 °C 1035.4 hPa Calm   3.2 km/h 89 % 0.0 mm 0 W/m2
03:00 7.2 °C 5.5 °C 1035.4 hPa Calm   3.2 km/h 89 % 0.0 mm 0 W/m2
03:05 7.2 °C 5.5 °C 1035.4 hPa Calm   3.2 km/h 89 % 0.0 mm 0 W/m2
03:10 7.2 °C 5.5 °C 1035.4 hPa Calm   3.2 km/h 89 % 0.0 mm 0 W/m2
03:15 7.2 °C 5.5 °C 1035.4 hPa Calm   4.8 km/h 89 % 0.0 mm 0 W/m2
03:20 7.1 °C 5.6 °C 1035.4 hPa SSE 3.2 km/h 4.8 km/h 90 % 0.0 mm 0 W/m2
03:25 7.1 °C 5.4 °C 1035.8 hPa Calm   3.2 km/h 89 % 0.0 mm 0 W/m2
03:30 7.1 °C 5.4 °C 1035.4 hPa Calm   3.2 km/h 89 % 0.0 mm 0 W/m2
03:35 7.1 °C 5.4 °C 1035.4 hPa Calm   3.2 km/h 89 % 0.0 mm 0 W/m2
03:40 7.2 °C 5.5 °C 1035.4 hPa Calm   4.8 km/h 89 % 0.0 mm 0 W/m2
03:45 7.2 °C 5.5 °C 1035.4 hPa Calm   4.8 km/h 89 % 0.0 mm 0 W/m2
03:50 7.2 °C 5.5 °C 1035.4 hPa SSE 3.2 km/h 3.2 km/h 89 % 0.0 mm 0 W/m2
03:55 7.2 °C 5.5 °C 1035.4 hPa Calm   3.2 km/h 89 % 0.0 mm 0 W/m2
04:00 7.2 °C 5.5 °C 1035.4 hPa Calm   3.2 km/h 89 % 0.0 mm 0 W/m2
04:05 7.1 °C 5.5 °C 1035.1 hPa Calm   3.2 km/h 90 % 0.0 mm 0 W/m2
04:10 7.1 °C 5.5 °C 1035.1 hPa SSE 1.6 km/h 3.2 km/h 90 % 0.0 mm 0 W/m2
04:15 7.1 °C 5.5 °C 1035.1 hPa Calm   3.2 km/h 90 % 0.0 mm 0 W/m2
04:20 7.1 °C 5.5 °C 1035.1 hPa Calm   3.2 km/h 90 % 0.0 mm 0 W/m2
04:25 7.0 °C 5.3 °C 1035.1 hPa Calm   3.2 km/h 89 % 0.0 mm 0 W/m2
04:30 7.0 °C 5.5 °C 1035.1 hPa Calm     90 % 0.0 mm 0 W/m2
04:35 6.9 °C 5.4 °C 1035.1 hPa Calm     90 % 0.0 mm 0 W/m2
04:40 6.9 °C 5.4 °C 1035.1 hPa Calm   3.2 km/h 90 % 0.0 mm 0 W/m2
04:45 6.9 °C 5.4 °C 1035.1 hPa Calm   3.2 km/h 90 % 0.0 mm 0 W/m2
04:50 6.9 °C 5.4 °C 1035.1 hPa Calm     90 % 0.0 mm 0 W/m2
04:55 6.9 °C 5.4 °C 1035.1 hPa Calm     90 % 0.0 mm 0 W/m2
05:00 6.9 °C 5.4 °C 1035.1 hPa Calm     90 % 0.0 mm 0 W/m2
05:05 6.9 °C 5.4 °C 1035.1 hPa Calm   3.2 km/h 90 % 0.0 mm 0 W/m2
05:10 6.8 °C 5.3 °C 1034.8 hPa SSE 4.8 km/h 4.8 km/h 90 % 0.0 mm 0 W/m2
05:15 6.8 °C 5.3 °C 1034.8 hPa Calm   6.4 km/h 90 % 0.0 mm 0 W/m2
05:20 6.9 °C 5.4 °C 1034.8 hPa SSE 3.2 km/h 6.4 km/h 90 % 0.0 mm 0 W/m2
05:25 6.9 °C 5.3 °C 1034.8 hPa Calm   4.8 km/h 89 % 0.0 mm 0 W/m2
05:30 7.0 °C 5.3 °C 1034.8 hPa Calm   4.8 km/h 89 % 0.0 mm 0 W/m2
05:35 6.9 °C 5.2 °C 1034.8 hPa Calm   1.6 km/h 89 % 0.0 mm 0 W/m2
05:40 6.8 °C 5.3 °C 1034.4 hPa SSE 4.8 km/h 4.8 km/h 90 % 0.0 mm 0 W/m2
05:45 6.9 °C 5.3 °C 1034.4 hPa Calm   6.4 km/h 89 % 0.0 mm 0 W/m2
05:50 7.0 °C 5.1 °C 1034.4 hPa Calm   6.4 km/h 88 % 0.0 mm 0 W/m2
05:55 7.0 °C 5.1 °C 1034.4 hPa Calm   4.8 km/h 88 % 0.0 mm 0 W/m2
06:00 7.0 °C 5.1 °C 1034.4 hPa Calm   1.6 km/h 88 % 0.0 mm 0 W/m2
06:05 6.9 °C 5.1 °C 1034.4 hPa Calm   1.6 km/h 88 % 0.0 mm 0 W/m2
06:10 6.9 °C 5.0 °C 1034.4 hPa SSE 1.6 km/h 1.6 km/h 88 % 0.0 mm 0 W/m2
06:15 6.9 °C 5.0 °C 1034.4 hPa Calm   3.2 km/h 88 % 0.0 mm 0 W/m2
06:20 6.9 °C 5.2 °C 1034.4 hPa Calm   3.2 km/h 89 % 0.0 mm 0 W/m2
06:25 6.8 °C 5.1 °C 1034.4 hPa Calm     89 % 0.0 mm 0 W/m2
06:30 6.8 °C 5.1 °C 1034.4 hPa Calm   1.6 km/h 89 % 0.0 mm 0 W/m2
06:35 6.8 °C 5.1 °C 1034.4 hPa Calm   1.6 km/h 89 % 0.0 mm 0 W/m2
06:40 6.8 °C 5.1 °C 1034.4 hPa Calm     89 % 0.0 mm 0 W/m2
06:45 6.8 °C 5.1 °C 1034.4 hPa Calm     89 % 0.0 mm 0 W/m2
06:50 6.8 °C 5.1 °C 1034.1 hPa Calm   3.2 km/h 89 % 0.0 mm 0 W/m2
06:55 6.8 °C 5.1 °C 1034.1 hPa Calm   3.2 km/h 89 % 0.0 mm 0 W/m2
07:00 6.8 °C 5.1 °C 1034.1 hPa Calm   1.6 km/h 89 % 0.0 mm 0 W/m2
07:05 6.8 °C 5.1 °C 1034.1 hPa SSE 3.2 km/h 3.2 km/h 89 % 0.0 mm 0 W/m2
07:10 6.7 °C 5.0 °C 1034.1 hPa SSE 3.2 km/h 3.2 km/h 89 % 0.0 mm 0 W/m2
07:15 6.7 °C 5.0 °C 1034.1 hPa SSE 1.6 km/h 3.2 km/h 89 % 0.0 mm 0 W/m2
07:20 6.8 °C 5.1 °C 1034.1 hPa Calm   3.2 km/h 89 % 0.0 mm 0 W/m2
07:25 6.8 °C 5.1 °C 1034.1 hPa SSE 1.6 km/h 3.2 km/h 89 % 0.0 mm 0 W/m2
07:30 6.7 °C 5.0 °C 1034.1 hPa SSE 1.6 km/h 3.2 km/h 89 % 0.0 mm 0 W/m2
07:35 6.8 °C 5.1 °C 1034.1 hPa Calm   3.2 km/h 89 % 0.0 mm 0 W/m2
07:40 6.8 °C 5.1 °C 1034.1 hPa SSE 1.6 km/h 3.2 km/h 89 % 0.0 mm 0 W/m2
07:45 6.8 °C 4.9 °C 1034.1 hPa Calm   3.2 km/h 88 % 0.0 mm 0 W/m2
07:55 6.7 °C 4.9 °C 1034.1 hPa SSE 3.2 km/h 4.8 km/h 88 % 0.0 mm 0 W/m2
08:00 6.7 °C 4.9 °C 1034.1 hPa SSE 1.6 km/h 4.8 km/h 88 % 0.0 mm 0 W/m2
08:05 6.8 °C 4.8 °C 1034.1 hPa Calm   4.8 km/h 87 % 0.0 mm 0 W/m2
08:10 6.8 °C 4.9 °C 1034.1 hPa Calm   3.2 km/h 88 % 0.0 mm 0 W/m2
08:15 6.7 °C 4.9 °C 1034.1 hPa Calm     88 % 0.0 mm 0 W/m2
08:20 6.7 °C 4.8 °C 1034.1 hPa Calm   3.2 km/h 88 % 0.0 mm 0 W/m2
08:25 6.7 °C 4.9 °C 1034.1 hPa Calm   3.2 km/h 88 % 0.0 mm 0 W/m2
08:30 6.7 °C 4.8 °C 1034.1 hPa Calm     88 % 0.0 mm 0 W/m2
08:35 6.6 °C 4.9 °C 1034.1 hPa Calm   3.2 km/h 89 % 0.0 mm 0 W/m2
08:40 6.6 °C 4.9 °C 1034.1 hPa SSE 1.6 km/h 3.2 km/h 89 % 0.0 mm 0 W/m2
08:45 6.6 °C 4.9 °C 1034.1 hPa SSE 1.6 km/h 3.2 km/h 89 % 0.0 mm 0 W/m2
08:50 6.6 °C 4.8 °C 1034.1 hPa Calm   3.2 km/h 88 % 0.0 mm 5 W/m2
08:55 6.7 °C 4.7 °C 1034.1 hPa Calm   3.2 km/h 87 % 0.0 mm 5 W/m2
09:00 6.7 °C 4.8 °C 1034.1 hPa Calm   3.2 km/h 88 % 0.0 mm 7 W/m2
09:05 6.7 °C 4.7 °C 1034.1 hPa Calm   3.2 km/h 87 % 0.0 mm 11 W/m2
09:10 6.7 °C 4.7 °C 1034.1 hPa Calm   4.8 km/h 87 % 0.0 mm 12 W/m2
09:15 6.7 °C 4.7 °C 1034.1 hPa Calm   4.8 km/h 87 % 0.0 mm 16 W/m2
09:20 6.8 °C 4.8 °C 1034.1 hPa SSE 3.2 km/h 4.8 km/h 87 % 0.0 mm 18 W/m2
09:25 6.8 °C 4.8 °C 1034.1 hPa Calm   4.8 km/h 87 % 0.0 mm 21 W/m2
09:30 6.9 °C 4.8 °C 1034.1 hPa Calm   4.8 km/h 86 % 0.0 mm 25 W/m2
09:35 7.0 °C 4.8 °C 1034.1 hPa Calm   4.8 km/h 86 % 0.0 mm 28 W/m2
09:40 7.0 °C 4.8 °C 1034.1 hPa Calm   3.2 km/h 86 % 0.0 mm 32 W/m2
09:45 7.1 °C 4.7 °C 1034.1 hPa SSE 3.2 km/h 4.8 km/h 85 % 0.0 mm 35 W/m2
09:50 7.2 °C 4.8 °C 1034.1 hPa Calm   4.8 km/h 85 % 0.0 mm 35 W/m2
09:55 7.2 °C 4.7 °C 1034.1 hPa SSE 1.6 km/h 6.4 km/h 84 % 0.0 mm 39 W/m2
10:00 7.3 °C 4.8 °C 1034.1 hPa SSE 3.2 km/h 6.4 km/h 84 % 0.0 mm 42 W/m2
10:05 7.3 °C 4.8 °C 1034.1 hPa SSE 1.6 km/h 3.2 km/h 84 % 0.0 mm 46 W/m2
10:10 7.4 °C 4.9 °C 1034.1 hPa Calm   4.8 km/h 84 % 0.0 mm 49 W/m2
10:15 7.5 °C 4.8 °C 1034.1 hPa Calm   4.8 km/h 83 % 0.0 mm 54 W/m2
10:20 7.6 °C 4.9 °C 1034.1 hPa Calm   3.2 km/h 83 % 0.0 mm 56 W/m2
10:25 7.7 °C 5.0 °C 1034.1 hPa Calm   3.2 km/h 83 % 0.0 mm 63 W/m2
10:30 7.7 °C 5.0 °C 1034.1 hPa Calm   6.4 km/h 83 % 0.0 mm 67 W/m2
10:35 7.9 °C 4.8 °C 1033.7 hPa SSE 1.6 km/h 6.4 km/h 81 % 0.0 mm 69 W/m2
10:40 8.1 °C 5.0 °C 1033.7 hPa Calm   6.4 km/h 81 % 0.0 mm 72 W/m2
10:45 8.2 °C 5.1 °C 1034.1 hPa Calm   3.2 km/h 81 % 0.0 mm 74 W/m2
10:50 8.2 °C 5.3 °C 1033.7 hPa Calm   3.2 km/h 82 % 0.0 mm 79 W/m2
10:55 8.3 °C 4.9 °C 1033.7 hPa South 3.2 km/h 8.0 km/h 79 % 0.0 mm 84 W/m2
11:00 8.4 °C 4.5 °C 1033.7 hPa South 3.2 km/h 8.0 km/h 76 % 0.0 mm 88 W/m2
11:05 8.6 °C 4.6 °C 1033.7 hPa Calm   8.0 km/h 76 % 0.0 mm 91 W/m2
11:10 8.7 °C 4.7 °C 1033.7 hPa South 3.2 km/h 8.0 km/h 76 % 0.0 mm 97 W/m2
11:15 8.8 °C 4.6 °C 1033.7 hPa South 3.2 km/h 8.0 km/h 75 % 0.0 mm 105 W/m2
11:20 8.8 °C 4.4 °C 1033.7 hPa South 3.2 km/h 8.0 km/h 74 % 0.0 mm 111 W/m2
11:25 8.9 °C 4.3 °C 1033.7 hPa South 3.2 km/h 8.0 km/h 73 % 0.0 mm 116 W/m2
11:30 9.0 °C 4.8 °C 1033.7 hPa Calm   8.0 km/h 75 % 0.0 mm 120 W/m2
11:35 8.9 °C 4.6 °C 1033.4 hPa ESE 4.8 km/h 9.7 km/h 74 % 0.0 mm 123 W/m2
11:40 9.1 °C 4.7 °C 1033.7 hPa South 4.8 km/h 9.7 km/h 74 % 0.0 mm 128 W/m2
11:45 9.1 °C 4.5 °C 1033.7 hPa South 1.6 km/h 9.7 km/h 73 % 0.0 mm 139 W/m2
11:50 9.1 °C 4.7 °C 1033.4 hPa SSW 4.8 km/h 9.7 km/h 74 % 0.0 mm 142 W/m2
11:55 9.2 °C 5.0 °C 1033.4 hPa South 3.2 km/h 9.7 km/h 75 % 0.0 mm 137 W/m2
12:00 9.2 °C 4.8 °C 1033.4 hPa Calm   9.7 km/h 74 % 0.0 mm 144 W/m2
12:05 9.3 °C 5.1 °C 1033.4 hPa SSE 3.2 km/h 9.7 km/h 75 % 0.0 mm 149 W/m2
12:10 9.2 °C 4.8 °C 1033.1 hPa SSE 9.7 km/h 11.3 km/h 74 % 0.0 mm 155 W/m2
12:15 9.2 °C 4.6 °C 1033.1 hPa SSE 3.2 km/h 11.3 km/h 73 % 0.0 mm 167 W/m2
12:20 9.2 °C 4.8 °C 1033.1 hPa South 6.4 km/h 11.3 km/h 74 % 0.0 mm 163 W/m2
12:25 9.2 °C 4.6 °C 1033.1 hPa South 9.7 km/h 12.9 km/h 73 % 0.0 mm 169 W/m2
12:30 9.2 °C 4.6 °C 1032.7 hPa SSW 4.8 km/h 12.9 km/h 73 % 0.0 mm 162 W/m2
12:35 9.2 °C 4.8 °C 1032.7 hPa South 8.0 km/h 12.9 km/h 74 % 0.0 mm 167 W/m2
12:40 9.1 °C 4.5 °C 1032.7 hPa South 6.4 km/h 12.9 km/h 73 % 0.0 mm 160 W/m2
12:45 9.2 °C 4.8 °C 1032.7 hPa SW 6.4 km/h 9.7 km/h 74 % 0.0 mm 160 W/m2
12:50 9.1 °C 4.5 °C 1032.7 hPa SSW 6.4 km/h 11.3 km/h 73 % 0.0 mm 151 W/m2
12:55 9.1 °C 4.5 °C 1032.7 hPa South 6.4 km/h 11.3 km/h 73 % 0.0 mm 148 W/m2
13:00 9.1 °C 4.5 °C 1032.7 hPa South 4.8 km/h 14.5 km/h 73 % 0.0 mm 146 W/m2
13:05 9.1 °C 4.5 °C 1032.7 hPa SE 4.8 km/h 14.5 km/h 73 % 0.0 mm 118 W/m2
13:10 9.1 °C 4.5 °C 1032.4 hPa SSE 6.4 km/h 11.3 km/h 73 % 0.0 mm 105 W/m2
13:15 9.1 °C 4.7 °C 1032.4 hPa SSE 4.8 km/h 11.3 km/h 74 % 0.0 mm 104 W/m2
13:20 9.1 °C 4.9 °C 1032.4 hPa SSE 3.2 km/h 11.3 km/h 75 % 0.0 mm 100 W/m2
13:25 9.1 °C 4.9 °C 1032.1 hPa SE 8.0 km/h 14.5 km/h 75 % 0.0 mm 98 W/m2
13:30 9.1 °C 4.9 °C 1032.1 hPa SSE 4.8 km/h 14.5 km/h 75 % 0.0 mm 93 W/m2
13:35 9.1 °C 4.9 °C 1032.1 hPa South 4.8 km/h 14.5 km/h 75 % 0.0 mm 90 W/m2
13:40 9.1 °C 5.0 °C 1032.1 hPa South 4.8 km/h 12.9 km/h 76 % 0.0 mm 84 W/m2
13:45 9.1 °C 5.1 °C 1032.1 hPa SSE 8.0 km/h 12.9 km/h 76 % 0.0 mm 81 W/m2
13:50 9.2 °C 5.0 °C 1031.7 hPa Calm   11.3 km/h 75 % 0.0 mm 81 W/m2
13:55 9.2 °C 5.0 °C 1031.7 hPa SSE 6.4 km/h 12.9 km/h 75 % 0.0 mm 83 W/m2
14:00 9.2 °C 4.8 °C 1031.7 hPa SSE 12.9 km/h 14.5 km/h 74 % 0.0 mm 86 W/m2
14:05 9.2 °C 4.8 °C 1031.7 hPa South 11.3 km/h 16.1 km/h 74 % 0.0 mm 90 W/m2
14:10 9.2 °C 4.6 °C 1031.7 hPa SSW 8.0 km/h 16.1 km/h 73 % 0.0 mm 90 W/m2
14:15 9.2 °C 4.8 °C 1031.4 hPa South 4.8 km/h 14.5 km/h 74 % 0.0 mm 88 W/m2
14:20 9.2 °C 4.8 °C 1031.4 hPa South 9.7 km/h 14.5 km/h 74 % 0.0 mm 84 W/m2
14:25 9.2 °C 4.8 °C 1031.4 hPa SSE 6.4 km/h 14.5 km/h 74 % 0.0 mm 83 W/m2
14:30 9.2 °C 4.6 °C 1031.4 hPa SSE 3.2 km/h 12.9 km/h 73 % 0.0 mm 76 W/m2
14:35 9.2 °C 4.6 °C 1031.4 hPa South 3.2 km/h 12.9 km/h 73 % 0.0 mm 72 W/m2
14:40 9.2 °C 4.8 °C 1031.0 hPa South 8.0 km/h 12.9 km/h 74 % 0.0 mm 72 W/m2
14:45 9.2 °C 4.8 °C 1031.0 hPa SSE 8.0 km/h 11.3 km/h 74 % 0.0 mm 72 W/m2
14:50 9.2 °C 4.8 °C 1031.0 hPa SSE 6.4 km/h 12.9 km/h 74 % 0.0 mm 70 W/m2
14:55 9.2 °C 4.8 °C 1031.0 hPa South 6.4 km/h 12.9 km/h 74 % 0.0 mm 70 W/m2
15:00 9.2 °C 4.8 °C 1031.0 hPa South 6.4 km/h 12.9 km/h 74 % 0.0 mm 69 W/m2
15:05 9.2 °C 5.0 °C 1030.7 hPa South 6.4 km/h 12.9 km/h 75 % 0.0 mm 67 W/m2
15:15 9.2 °C 4.8 °C 1030.7 hPa SSE 3.2 km/h 12.9 km/h 74 % 0.0 mm 62 W/m2
15:20 9.2 °C 4.8 °C 1030.7 hPa SSE 4.8 km/h 11.3 km/h 74 % 0.0 mm 56 W/m2
15:25 9.2 °C 4.4 °C 1030.7 hPa South 8.0 km/h 12.9 km/h 72 % 0.0 mm 51 W/m2
15:30 9.1 °C 4.3 °C 1030.7 hPa SSE 8.0 km/h 12.9 km/h 72 % 0.0 mm 46 W/m2
15:35 9.1 °C 4.5 °C 1030.7 hPa SSE 6.4 km/h 11.3 km/h 73 % 0.0 mm 40 W/m2
15:40 9.1 °C 4.3 °C 1030.7 hPa SSE 8.0 km/h 11.3 km/h 72 % 0.0 mm 37 W/m2
15:45 9.1 °C 4.3 °C 1030.7 hPa South 3.2 km/h 11.3 km/h 72 % 0.0 mm 35 W/m2
15:50 9.0 °C 4.4 °C 1030.4 hPa South 9.7 km/h 11.3 km/h 73 % 0.0 mm 32 W/m2
15:55 9.0 °C 4.6 °C 1030.4 hPa South 8.0 km/h 9.7 km/h 74 % 0.0 mm 28 W/m2
16:00 8.9 °C 4.6 °C 1030.4 hPa SSE 1.6 km/h 9.7 km/h 74 % 0.0 mm 26 W/m2
16:05 8.9 °C 4.7 °C 1030.4 hPa SSE 6.4 km/h 9.7 km/h 75 % 0.0 mm 32 W/m2
16:10 8.9 °C 4.9 °C 1030.4 hPa South 4.8 km/h 11.3 km/h 76 % 0.0 mm 33 W/m2
16:15 8.9 °C 4.9 °C 1030.4 hPa South 8.0 km/h 11.3 km/h 76 % 0.0 mm 28 W/m2
16:20 8.9 °C 4.9 °C 1030.4 hPa SSE 6.4 km/h 9.7 km/h 76 % 0.0 mm 25 W/m2
16:25 8.9 °C 5.1 °C 1030.4 hPa South 4.8 km/h 9.7 km/h 77 % 0.0 mm 21 W/m2
16:30 8.8 °C 5.0 °C 1030.4 hPa SSE 1.6 km/h 9.7 km/h 77 % 0.0 mm 16 W/m2
16:35 8.8 °C 5.0 °C 1030.4 hPa SSE 4.8 km/h 11.3 km/h 77 % 0.0 mm 14 W/m2
16:40 8.8 °C 5.0 °C 1030.0 hPa SSE 3.2 km/h 11.3 km/h 77 % 0.0 mm 12 W/m2
16:45 8.8 °C 5.0 °C 1030.0 hPa SSE 6.4 km/h 11.3 km/h 77 % 0.0 mm 9 W/m2
16:50 8.7 °C 4.9 °C 1030.0 hPa SSE 3.2 km/h 9.7 km/h 77 % 0.0 mm 7 W/m2
16:55 8.7 °C 4.9 °C 1030.0 hPa SE 1.6 km/h 9.7 km/h 77 % 0.0 mm 5 W/m2
17:00 8.6 °C 4.8 °C 1030.0 hPa SSE 3.2 km/h 9.7 km/h 77 % 0.0 mm 5 W/m2
17:05 8.6 °C 4.8 °C 1030.0 hPa South 16.1 km/h 16.1 km/h 77 % 0.0 mm 0 W/m2
17:10 8.6 °C 4.8 °C 1030.0 hPa South 4.8 km/h 16.1 km/h 77 % 0.0 mm 0 W/m2
17:15 8.6 °C 4.8 °C 1030.0 hPa SSE 8.0 km/h 16.1 km/h 77 % 0.0 mm 0 W/m2
17:20 8.6 °C 4.8 °C 1030.0 hPa SSE 4.8 km/h 14.5 km/h 77 % 0.0 mm 0 W/m2
17:25 8.6 °C 4.8 °C 1029.7 hPa SSE 1.6 km/h 14.5 km/h 77 % 0.0 mm 0 W/m2
17:30 8.6 °C 4.8 °C 1029.7 hPa South 6.4 km/h 9.7 km/h 77 % 0.0 mm 0 W/m2
17:35 8.5 °C 4.7 °C 1029.7 hPa SSE 4.8 km/h 11.3 km/h 77 % 0.0 mm 0 W/m2
17:40 8.5 °C 4.7 °C 1029.7 hPa South 6.4 km/h 12.9 km/h 77 % 0.0 mm 0 W/m2
17:45 8.5 °C 4.7 °C 1029.7 hPa South 6.4 km/h 16.1 km/h 77 % 0.0 mm 0 W/m2
17:50 8.4 °C 4.6 °C 1029.7 hPa South 4.8 km/h 16.1 km/h 77 % 0.0 mm 0 W/m2
17:55 8.4 °C 4.6 °C 1029.7 hPa SSE 6.4 km/h 12.9 km/h 77 % 0.0 mm 0 W/m2
18:00 8.4 °C 4.8 °C 1029.7 hPa SE 4.8 km/h 12.9 km/h 78 % 0.0 mm 0 W/m2
18:05 8.4 °C 4.8 °C 1029.7 hPa SSE 4.8 km/h 14.5 km/h 78 % 0.0 mm 0 W/m2
18:10 8.3 °C 4.5 °C 1029.7 hPa South 4.8 km/h 14.5 km/h 77 % 0.0 mm 0 W/m2
18:15 8.3 °C 4.5 °C 1029.7 hPa SE 3.2 km/h 14.5 km/h 77 % 0.0 mm 0 W/m2
18:20 8.3 °C 4.5 °C 1029.3 hPa SSE 11.3 km/h 14.5 km/h 77 % 0.0 mm 0 W/m2
18:25 8.3 °C 4.3 °C 1029.3 hPa SSE 4.8 km/h 12.9 km/h 76 % 0.0 mm 0 W/m2
18:30 8.3 °C 4.3 °C 1029.3 hPa SSE 4.8 km/h 14.5 km/h 76 % 0.0 mm 0 W/m2
18:35 8.3 °C 4.3 °C 1029.3 hPa SE 4.8 km/h 14.5 km/h 76 % 0.0 mm 0 W/m2
18:45 8.2 °C 4.2 °C 1029.3 hPa SSE 9.7 km/h 14.5 km/h 76 % 0.0 mm 0 W/m2
18:50 8.2 °C 4.2 °C 1029.3 hPa SSE 4.8 km/h 14.5 km/h 76 % 0.0 mm 0 W/m2
18:55 8.2 °C 4.2 °C 1029.0 hPa SSE 1.6 km/h 11.3 km/h 76 % 0.0 mm 0 W/m2
19:00 8.2 °C 4.4 °C 1029.0 hPa SSE 4.8 km/h 12.9 km/h 77 % 0.0 mm 0 W/m2
19:05 8.2 °C 4.4 °C 1029.0 hPa SSE 6.4 km/h 12.9 km/h 77 % 0.0 mm 0 W/m2
19:10 8.1 °C 4.5 °C 1029.0 hPa SSE 4.8 km/h 11.3 km/h 78 % 0.0 mm 0 W/m2
19:15 8.1 °C 4.5 °C 1029.0 hPa SSE 6.4 km/h 12.9 km/h 78 % 0.0 mm 0 W/m2
19:20 8.1 °C 4.5 °C 1029.0 hPa SSE 6.4 km/h 12.9 km/h 78 % 0.0 mm 0 W/m2
19:25 8.1 °C 4.4 °C 1029.0 hPa SE 9.7 km/h 11.3 km/h 78 % 0.0 mm 0 W/m2
19:30 8.1 °C 4.4 °C 1029.0 hPa Calm   11.3 km/h 78 % 0.0 mm 0 W/m2
19:35 8.1 °C 4.4 °C 1029.0 hPa South 8.0 km/h 11.3 km/h 78 % 0.0 mm 0 W/m2
19:40 8.1 °C 4.4 °C 1028.7 hPa South 8.0 km/h 11.3 km/h 78 % 0.0 mm 0 W/m2
19:45 8.1 °C 4.4 °C 1028.7 hPa SSE 8.0 km/h 11.3 km/h 78 % 0.0 mm 0 W/m2
19:50 8.1 °C 4.4 °C 1028.7 hPa South 3.2 km/h 12.9 km/h 78 % 0.0 mm 0 W/m2
19:55 8.1 °C 4.4 °C 1028.7 hPa SSE 6.4 km/h 14.5 km/h 78 % 0.0 mm 0 W/m2
20:00 8.1 °C 4.6 °C 1028.7 hPa SSE 4.8 km/h 14.5 km/h 79 % 0.0 mm 0 W/m2
20:05 8.1 °C 4.6 °C 1028.7 hPa SSE 9.7 km/h 12.9 km/h 79 % 0.0 mm 0 W/m2
20:10 8.1 °C 4.6 °C 1028.7 hPa SSW 11.3 km/h 16.1 km/h 79 % 0.0 mm 0 W/m2
20:15 8.1 °C 4.9 °C 1028.7 hPa South 6.4 km/h 16.1 km/h 80 % 0.0 mm 0 W/m2
20:20 8.1 °C 4.9 °C 1028.7 hPa SSE 9.7 km/h 16.1 km/h 80 % 0.0 mm 0 W/m2
20:25 8.2 °C 5.1 °C 1028.7 hPa SSW 9.7 km/h 17.7 km/h 81 % 0.0 mm 0 W/m2
20:30 8.1 °C 5.0 °C 1028.7 hPa South 11.3 km/h 17.7 km/h 81 % 0.0 mm 0 W/m2
20:35 8.1 °C 5.2 °C 1028.7 hPa South 6.4 km/h 16.1 km/h 82 % 0.0 mm 0 W/m2
20:40 8.1 °C 5.3 °C 1028.7 hPa SSE 4.8 km/h 12.9 km/h 83 % 0.0 mm 0 W/m2
20:45 8.0 °C 5.3 °C 1028.7 hPa South 9.7 km/h 14.5 km/h 83 % 0.0 mm 0 W/m2
20:50 7.8 °C 5.3 °C 1028.7 hPa SE 6.4 km/h 17.7 km/h 84 % 0.0 mm 0 W/m2
20:55 7.7 °C 5.4 °C 1028.7 hPa SSE 17.7 km/h 20.9 km/h 85 % 0.0 mm 0 W/m2
21:00 7.6 °C 5.2 °C 1028.3 hPa South 14.5 km/h 20.9 km/h 85 % 0.0 mm 0 W/m2
21:05 7.4 °C 5.3 °C 1028.3 hPa SSE 14.5 km/h 20.9 km/h 86 % 0.0 mm 0 W/m2
21:10 7.3 °C 5.1 °C 1028.3 hPa South 11.3 km/h 19.3 km/h 86 % 0.0 mm 0 W/m2
21:15 7.2 °C 5.2 °C 1028.3 hPa SSW 9.7 km/h 19.3 km/h 87 % 0.0 mm 0 W/m2
21:20 7.0 °C 5.0 °C 1028.3 hPa South 14.5 km/h 20.9 km/h 87 % 0.0 mm 0 W/m2
21:25 6.8 °C 5.0 °C 1028.3 hPa SSE 12.9 km/h 20.9 km/h 88 % 0.0 mm 0 W/m2
21:30 6.6 °C 4.7 °C 1028.3 hPa SSE 16.1 km/h 20.9 km/h 88 % 0.0 mm 0 W/m2
21:35 6.2 °C 4.5 °C 1028.3 hPa SSE 17.7 km/h 22.5 km/h 89 % 0.0 mm 0 W/m2
21:40 6.1 °C 4.4 °C 1028.3 hPa South 6.4 km/h 22.5 km/h 89 % 0.0 mm 0 W/m2
21:45 5.9 °C 4.4 °C 1028.3 hPa SSE 11.3 km/h 22.5 km/h 90 % 0.0 mm 0 W/m2
21:55 5.7 °C 4.2 °C 1028.3 hPa SSE 8.0 km/h 19.3 km/h 90 % 0.0 mm 0 W/m2
22:00 5.6 °C 4.2 °C 1028.3 hPa South 16.1 km/h 20.9 km/h 91 % 0.0 mm 0 W/m2
22:05 5.4 °C 4.0 °C 1028.0 hPa South 3.2 km/h 20.9 km/h 91 % 0.0 mm 0 W/m2
22:10 5.2 °C 3.9 °C 1028.0 hPa South 8.0 km/h 22.5 km/h 91 % 0.0 mm 0 W/m2
22:15 5.1 °C 3.7 °C 1028.0 hPa South 8.0 km/h 22.5 km/h 91 % 0.0 mm 0 W/m2
22:25 4.9 °C 3.5 °C 1028.0 hPa SSE 12.9 km/h 19.3 km/h 91 % 0.0 mm 0 W/m2
22:30 4.8 °C 3.6 °C 1028.0 hPa SSW 9.7 km/h 20.9 km/h 92 % 0.0 mm 0 W/m2
22:35 4.7 °C 3.5 °C 1028.0 hPa South 14.5 km/h 22.5 km/h 92 % 0.0 mm 0 W/m2
22:40 4.6 °C 3.4 °C 1028.0 hPa SSE 9.7 km/h 22.5 km/h 92 % 0.0 mm 0 W/m2
22:45 4.5 °C 3.3 °C 1027.7 hPa South 8.0 km/h 20.9 km/h 92 % 0.0 mm 0 W/m2
22:50 4.4 °C 3.3 °C 1027.7 hPa South 11.3 km/h 17.7 km/h 92 % 0.0 mm 0 W/m2
22:55 4.3 °C 3.1 °C 1027.7 hPa SSE 17.7 km/h 20.9 km/h 92 % 0.0 mm 0 W/m2
23:00 4.2 °C 3.0 °C 1027.7 hPa South 8.0 km/h 20.9 km/h 92 % 0.0 mm 0 W/m2
23:05 4.1 °C 2.9 °C 1027.3 hPa SSE 9.7 km/h 19.3 km/h 92 % 0.0 mm 0 W/m2
23:10 4.0 °C 2.8 °C 1027.3 hPa SE 9.7 km/h 14.5 km/h 92 % 0.0 mm 0 W/m2
23:15 3.8 °C 2.7 °C 1027.3 hPa South 8.0 km/h 14.5 km/h 92 % 0.0 mm 0 W/m2
23:20 3.8 °C 2.6 °C 1027.3 hPa SSE 6.4 km/h 16.1 km/h 92 % 0.0 mm 0 W/m2
23:30 3.6 °C 2.6 °C 1027.3 hPa SE 11.3 km/h 20.9 km/h 93 % 0.0 mm 0 W/m2
23:35 3.6 °C 2.5 °C 1027.3 hPa South 9.7 km/h 16.1 km/h 93 % 0.0 mm 0 W/m2
23:40 3.6 °C 2.5 °C 1027.0 hPa SE 6.4 km/h 16.1 km/h 93 % 0.0 mm 0 W/m2
23:45 3.5 °C 2.5 °C 1027.3 hPa South 12.9 km/h 14.5 km/h 93 % 0.0 mm 0 W/m2
23:50 3.5 °C 2.5 °C 1027.0 hPa SSE 14.5 km/h 16.1 km/h 93 % 0.0 mm 0 W/m2
23:55 3.4 °C 2.4 °C 1027.0 hPa SSE 14.5 km/h 17.7 km/h 93 % 0.0 mm 0 W/m2
Avec l'autorisation de Weather Underground - 1.75 mb